SL-12 DEB, 48541

Orbit data source: Space-Track

SL-12 DEB, 48541 is space debris in HEO originally from a launch on Mon, 01 Mar 2010 UTC launched from the Tyuratam Missile And Space Complex (TTMTR). Debris objects in space refer to the collection of defunct objects orbiting the Earth. Examples of debris include non-operational satellites, rocket bodies, and fragments generated from explosions, collisions, or faulty payload assembly.

Loading next visibility...
Identifier
48541, 2010-007AT
Orbit
HEO
Country
Flag of CISCIS
Related business
Manufacturer
RKKE
Mission
Spacecraft
Bus & Motor
Unknown
Mass
Unknown
Launch date (UTC)
2010-03-01 (17 years ago)
Launch vehicle
Unknown
Launch site
Tyuratam Missile And Space Complex (TTMTR)
Object type
Payload
Rocket body
Debris
Shape & HBR
Unknown shape, 0.1 m
Radar Cross Section
Medium (>0.1 m² and <1 m²)

Expand to show TLE details & history
Last TLE update: 3 days ago

TLE from 3 days ago
0 SL-12 DEB
1 48541U 10007AT  26254.49578659  .00002321  00000-0  72470-2 0  9992
2 48541  64.4716 227.7993 5603874 333.5290   6.2644  4.39847944178188
Epoch: 2026-09-11T11:53Z
TLE epoch observation values (Epoch: 2026-09-11T11:53:55.961Z)
Latitude
-0.0001°
Longitude
58.80175°
Altitude
814.282 km
Speed
9.248 km/s
True Right ascension
15h 11m 12s
True Declination
0° 00' 00"
Sunlit
Object was in daylight at epoch
Visualization orbit readout
Latitude
Unknown
Longitude
Unknown
Altitude
Unknown
Speed
Unknown
Apparent Right ascension
Unknown
Apparent Declination
Unknown
Sunlit
N/A
Visualization observer readout
Local Sidereal Time
21:01:52
Azimuth
Unknown
Elevation
Unknown
Doppler factor
Unknown
Orbital elements
Apogee altitude
18,172.875 km
Perigee altitude
538.693 km
Semi-major axis
15,733.921 km
Eccentricity
0.56039
Inclination
64.4716°
RAAN
227.7993°
Arg. of periapsis
333.529°
True anomaly
26.17705°
Mean anomaly
6.2644°
Eccentric anomaly
14.0701°
Mean motion
1.09973 °/min
Orbital period
327.35 mins
BSTAR
0.007247
Loading maneuver chart data...
Computing Atmospheric mass density...
Loading historical data...
Loading historical data...
Loading historical data...
Loading historical data...
Loading historical data...
Loading historical data...
Loading historical data...

Documentation

Showing up to 5 results
|